sat.trackr.live / text

‹ back to catalog

STARLINK-3544

NORAD 51803 · 2022-017AM

PAYLOAD ACTIVE UNKNOWN

§ Identity

Operator
Country
US
Launch date
2022-02-25
Launch site
AFWTR
Launch vehicle
Mass (kg)
RCS (m²)

Purposes: comms

External: N2YO · Heavens-Above · Gunter

§ Orbital elements

Epoch: 2026-05-25T01:11:53.832768Z

Period
95.44 min
Inclination
53.2131°
Eccentricity
0.0001065
Mean motion
15.08838346 rev/d
Perigee alt
539.0 km
Apogee alt
540.5 km
Semi-major
6,917.9 km
B*
-7.8835e-6
RAAN
6.3230°
Arg perigee
74.1699°
Mean anomaly
285.9410°
Rev number
23,544

§ Raw data

STARLINK-35441 51803U 22017AM  26145.04992862 -.00000413  00000+0 -78835-5 0  99922 51803  53.2131   6.3230 0001065  74.1699 285.9410 15.08838346235449

JSON: /api/v1/satellites/51803 · /tle

For live sub-satellite position, see the globe view (requires WebGL).

§ Visibility from observer

Set your observer location to see the next 7 days of passes ≥ 10°. The values pass through the URL so the page stays shareable.

No JS? Fill the form by hand. The geolocation button needs JavaScript.